Location: Montr�al
(45.5000°N, 73.5830°W)
Time: 21:22:43
(UTC-05:00)

ISS - Visible Passes

Search period start: 19 December 2014 00:00
Search period end: 29 December 2014 00:00
Orbit: 404 x 415 km, 51.6° (Epoch: 19 December)

Date Brightness Start Highest point End Pass type
(mag) Time Alt. Az. Time Alt. Az. Time Alt. Az.
19 Dec -2.1 17:59:38 10° NW 18:02:22 30° N 18:02:22 30° N visible
20 Dec -2.0 17:08:49 10° WNW 17:11:42 27° N 17:13:46 15° NE visible
20 Dec -0.8 18:45:27 10° WNW 18:46:32 19° NW 18:46:32 19° NW visible
21 Dec -2.8 17:54:42 10° NW 17:57:51 41° NNE 17:57:57 41° NNE visible
22 Dec -2.4 17:03:52 10° NW 17:06:53 33° NNE 17:09:25 13° ENE visible
22 Dec -1.4 18:40:23 10° WNW 18:42:11 29° WNW 18:42:11 29° WNW visible
23 Dec -3.4 17:49:29 10° WNW 17:52:47 73° NNE 17:53:46 41° ESE visible
24 Dec -3.0 16:58:34 10° NW 17:01:48 49° NNE 17:04:59 10° E visible
24 Dec -1.6 18:35:19 10° WNW 18:38:16 30° SW 18:38:16 30° SW visible
25 Dec -2.6 17:44:09 10° WNW 17:47:22 52° SW 17:50:14 12° SE visible
26 Dec -3.3 16:53:04 10° WNW 16:56:22 88° SSW 16:59:39 10° ESE visible
26 Dec -0.2 18:30:43 10° W 18:32:29 14° SW 18:34:15 10° SSW visible
27 Dec -0.8 17:38:54 10° W 17:41:36 23° SW 17:44:16 10° SSE visible
28 Dec -1.7 16:47:28 10° WNW 16:50:35 40° SW 16:53:40 10° SSE visible
